GFSMA_700_temp_000.txt.gz
Temp
2 2 2 2 2 2 1 1 1 1 1 1 2 2 1 1 1 1 0 1 1 1 1 1 1 1 1 2 2 2 2 2 1 1 0 0 1 2 2 1 2 2 2
2 2 1 1 1 1 1 1 1 2 2 2 1 1 2 1 1 1 1 0 1 1 1 0 0 1 1 1 1 1 2 2 2 1 1 1 -0 1 1 1 1 2 3
1 1 1 1 1 0 1 1 1 0 1 1 1 2 2 2 2 2 1 -0 -0 0 -0 -0 0 0 0 0 0 1 1 2 2 1 1 1 0 1 1 1 2 2 2
1 1 0 -0 -0 -0 -0 -0 -0 0 -0 -1 -1 -1 -1 -1 0 1 1 2 0 -0 -0 -1 -1 -1 -1 -0 -0 -0 0 1 2 2 2 1 1 2 1 0 1 2 2
-0 -0 -1 -1 -1 -1 -1 -1 -1 -1 -1 -2 -2 -2 -2 -2 -2 -2 -1 -0 0 -1 -1 -0 -1 -1 -1 -1 -1 -1 -1 -0 0 1 1 2 1 1 1 1 0 0 1
-0 -1 -1 -1 -2 -2 -2 -2 -2 -2 -2 -2 -2 -2 -2 -2 -2 -2 -3 -2 -2 -2 -2 -3 -2 -2 -2 -2 -2 -2 -2 -1 -1 -0 0 0 1 1 0 1 -0 1 1
-1 -2 -2 -2 -2 -2 -2 -3 -3 -2 -2 -2 -3 -3 -3 -3 -3 -3 -3 -4 -3 -3 -3 -2 -1 -2 -2 -3 -3 -3 -2 -2 -2 -1 -1 -1 -0 1 1 0 1 -0 0
-3 -2 -3 -3 -3 -2 -2 -3 -3 -3 -3 -3 -3 -3 -3 -3 -3 -3 -3 -4 -3 -3 -3 -4 -4 -4 -3 -3 -4 -4 -3 -3 -3 -2 -2 -1 -1 -1 -0 0 0 0 0
-3 -2 -3 -3 -3 -3 -3 -4 -4 -4 -4 -4 -4 -5 -5 -4 -4 -3 -3 -3 -4 -4 -3 -4 -4 -5 -5 -4 -4 -4 -4 -4 -4 -3 -3 -3 -2 -2 -1 -1 -1 -0 -0
-3 -3 -4 -4 -5 -5 -5 -5 -5 -5 -5 -5 -4 -4 -4 -5 -5 -4 -4 -4 -4 -4 -4 -4 -5 -5 -5 -6 -5 -6 -5 -4 -4 -4 -4 -4 -3 -2 -2 -2 -1 -1 -1
-3 -5 -5 -5 -5 -5 -5 -5 -5 -5 -5 -5 -5 -5 -5 -6 -7 -8 -7 -6 -5 -5 -5 -5 -5 -5 -5 -5 -6 -5 -6 -6 -5 -5 -4 -4 -4 -4 -3 -2 -2 -2 -1
-5 -5 -5 -5 -5 -5 -5 -6 -6 -6 -7 -7 -8 -9 -9 -9 -8 -9 -9 -8 -8 -7 -7 -6 -6 -5 -5 -6 -7 -7 -6 -6 -6 -5 -5 -5 -5 -4 -4 -3 -2 -2 -2
-5 -5 -5 -5 -6 -6 -7 -7 -8 -9 -9 -10 -10 -11 -11 -11 -11 -11 -11 -10 -10 -9 -9 -9 -7 -7 -7 -7 -8 -8 -8 -7 -6 -6 -6 -6 -5 -5 -5 -4 -3 -3 -3
-6 -6 -6 -7 -7 -7 -8 -8 -9 -10 -11 -12 -11 -11 -11 -11 -11 -11 -11 -11 -11 -10 -10 -9 -9 -9 -8 -8 -8 -8 -8 -8 -7 -6 -6 -5 -6 -5 -5 -5 -4 -4 -4
-6 -7 -7 -8 -8 -9 -10 -10 -12 -12 -12 -12 -12 -12 -12 -12 -12 -12 -11 -11 -12 -11 -10 -10 -10 -10 -9 -9 -9 -9 -9 -10 -9 -8 -7 -6 -7 -6 -6 -5 -5 -5 -4
-7 -8 -8 -9 -10 -11 -11 -12 -12 -13 -13 -13 -13 -13 -13 -13 -13 -13 -13 -13 -13 -13 -11 -12 -12 -12 -11 -11 -10 -10 -10 -11 -11 -9 -9 -8 -8 -8 -7 -6 -6 -5 -5
-9 -9 -10 -11 -12 -12 -12 -13 -13 -13 -14 -14 -14 -14 -13 -13 -13 -14 -14 -14 -14 -14 -14 -12 -13 -13 -13 -12 -12 -11 -11 -11 -12 -12 -11 -9 -9 -8 -8 -7 -7 -7 -6
-10 -11 -11 -12 -12 -13 -13 -14 -13 -14 -14 -14 -14 -14 -15 -15 -14 -14 -14 -14 -15 -15 -15 -15 -15 -14 -14 -13 -13 -13 -13 -13 -13 -13 -12 -12 -11 -9 -9 -8 -8 -7 -6
-11 -12 -13 -13 -14 -14 -14 -15 -16 -16 -16 -16 -16 -16 -16 -16 -16 -16 -16 -16 -16 -16 -16 -16 -15 -15 -15 -14 -14 -13 -13 -13 -14 -13 -13 -13 -13 -12 -10 -10 -9 -9 -8
-13 -14 -15 -15 -16 -16 -17 -16 -16 -16 -16 -16 -16 -16 -17 -17 -17 -17 -17 -17 -17 -17 -16 -16 -15 -15 -15 -15 -15 -14 -14 -14 -14 -14 -14 -14 -14 -13 -13 -12 -10 -10 -9
-15 -15 -16 -16 -17 -17 -17 -16 -16 -16 -16 -17 -17 -17 -17 -17 -17 -17 -17 -17 -18 -17 -17 -17 -16 -16 -16 -16 -16 -16 -16 -15 -15 -15 -15 -15 -15 -14 -14 -13 -13 -12 -11
-15 -16 -16 -17 -17 -17 -17 -17 -16 -17 -17 -17 -17 -17 -18 -18 -18 -19 -19 -18 -18 -17 -17 -16 -16 -16 -16 -16 -15 -15 -15 -15 -15 -15 -15 -15 -15 -14 -14 -15 -14 -14 -12
-15 -16 -17 -17 -17 -17 -17 -17 -17 -18 -18 -18 -18 -18 -18 -18 -18 -19 -19 -19 -18 -17 -17 -16 -16 -16 -16 -16 -16 -16 -16 -16 -16 -16 -16 -16 -15 -15 -15 -15 -15 -14 -13
-16 -17 -17 -17 -17 -17 -17 -18 -18 -18 -18 -18 -18 -18 -18 -18 -19 -19 -19 -18 -18 -18 -17 -17 -16 -16 -16 -16 -16 -16 -16 -16 -16 -15 -16 -16 -15 -15 -15 -15 -15 -15 -15
-16 -17 -17 -17 -17 -17 -17 -17 -18 -18 -19 -19 -19 -19 -19 -19 -19 -19 -19 -19 -18 -18 -17 -18 -17 -16 -16 -16 -16 -16 -15 -16 -15 -15 -16 -16 -16 -15 -15 -15 -15 -15 -14
-16 -17 -17 -17 -17 -17 -17 -18 -18 -19 -19 -19 -19 -20 -20 -20 -20 -20 -19 -19 -18 -18 -17 -17 -17 -17 -17 -17 -17 -17 -16 -16 -16 -16 -16 -17 -17 -17 -16 -16 -15 -15 -15

GFSMA_700_temp_003.txt.gz
Temp
3 2 2 2 1 1 1 1 1 1 2 2 2 2 2 2 2 1 1 1 0 0 0 0 1 0 0 1 1 1 2 2 2 2 2 1 1 1 1 2 2 1 2
2 2 1 1 1 1 1 1 0 1 1 1 1 2 2 3 3 2 1 2 1 1 0 -0 -1 -0 -0 -0 0 1 1 1 2 2 2 1 1 0 0 1 2 2 2
2 2 1 0 -0 -0 -0 -0 -0 -0 -0 -1 -1 -0 0 1 2 2 1 0 1 1 1 0 0 -0 -1 -1 -1 -0 -0 1 1 1 1 1 1 1 1 1 1 2 1
1 1 0 0 -0 -0 -1 -1 -1 -1 -1 -0 -1 -1 -2 -1 -1 -0 0 -0 -1 -1 -0 0 -0 -1 -1 -1 -1 -1 -1 -0 0 1 1 1 0 0 1 0 1 0 1
-1 -1 -1 -0 -1 -1 -1 -1 -1 -1 -1 -2 -2 -2 -2 -2 -2 -2 -2 -2 -2 -2 -1 -1 -1 -1 -1 -1 -1 -2 -2 -1 -0 -0 0 1 0 0 1 1 1 1 1
-0 -1 -1 -2 -2 -2 -1 -2 -2 -2 -3 -3 -3 -3 -3 -3 -3 -2 -2 -2 -2 -3 -3 -2 -2 -1 -2 -3 -3 -3 -2 -3 -2 -1 -1 -0 -0 -0 0 0 1 1 1
-1 -1 -1 -2 -2 -1 -1 -2 -3 -3 -3 -4 -3 -3 -3 -3 -3 -2 -3 -3 -3 -3 -3 -4 -4 -3 -3 -3 -4 -4 -4 -3 -3 -3 -2 -1 -1 -1 -1 -1 -0 0 0
-2 -1 -1 -1 -2 -2 -3 -3 -3 -3 -3 -4 -4 -4 -4 -3 -3 -3 -3 -3 -3 -3 -4 -3 -4 -4 -4 -4 -3 -4 -5 -4 -4 -4 -3 -3 -2 -1 -1 -1 -1 -0 -1
-1 -2 -2 -3 -3 -4 -4 -5 -5 -5 -5 -4 -5 -5 -5 -4 -4 -4 -4 -4 -4 -4 -4 -4 -4 -4 -4 -4 -5 -4 -5 -5 -5 -4 -4 -4 -3 -3 -2 -2 -1 -1 -1
-2 -2 -3 -4 -5 -5 -6 -6 -6 -6 -6 -5 -5 -6 -6 -6 -6 -5 -5 -5 -5 -5 -5 -5 -5 -5 -5 -5 -4 -4 -4 -6 -6 -5 -4 -4 -4 -4 -3 -3 -2 -2 -1
-3 -4 -5 -6 -6 -6 -6 -6 -6 -6 -6 -6 -7 -7 -8 -9 -9 -9 -8 -6 -6 -6 -6 -6 -6 -6 -6 -5 -5 -5 -5 -5 -6 -6 -5 -4 -4 -4 -4 -3 -3 -3 -2
-5 -5 -5 -6 -7 -6 -6 -6 -6 -7 -8 -8 -9 -10 -11 -11 -10 -11 -11 -9 -9 -8 -8 -8 -8 -8 -7 -7 -6 -5 -6 -5 -5 -6 -6 -5 -5 -4 -4 -4 -3 -3 -3
-6 -6 -6 -7 -7 -7 -7 -7 -8 -9 -10 -10 -11 -11 -12 -11 -12 -12 -12 -11 -11 -10 -10 -9 -9 -9 -9 -8 -7 -7 -7 -7 -7 -6 -7 -6 -7 -6 -5 -5 -4 -4 -4
-6 -6 -7 -7 -8 -8 -8 -9 -9 -11 -11 -12 -12 -12 -12 -12 -12 -12 -12 -12 -11 -11 -10 -10 -10 -10 -10 -9 -9 -8 -9 -8 -8 -8 -8 -7 -7 -7 -6 -6 -5 -5 -4
-7 -8 -8 -8 -9 -10 -10 -11 -11 -12 -12 -13 -13 -13 -13 -13 -13 -13 -13 -13 -13 -12 -10 -10 -10 -11 -11 -11 -11 -10 -10 -9 -9 -9 -8 -8 -8 -7 -6 -7 -6 -5 -5
-8 -10 -10 -11 -11 -11 -12 -12 -13 -13 -13 -14 -14 -14 -14 -14 -13 -13 -13 -13 -13 -13 -12 -11 -11 -11 -12 -12 -12 -12 -11 -10 -9 -9 -10 -10 -8 -8 -7 -6 -7 -7 -6
-10 -10 -10 -11 -11 -12 -13 -13 -13 -13 -14 -14 -15 -15 -15 -15 -14 -14 -13 -13 -13 -14 -14 -13 -13 -12 -12 -12 -12 -12 -11 -11 -10 -10 -10 -10 -9 -9 -8 -8 -8 -8 -7
-10 -10 -11 -12 -13 -13 -14 -14 -14 -15 -15 -15 -15 -15 -15 -15 -15 -15 -15 -15 -15 -14 -14 -14 -14 -14 -14 -13 -14 -13 -12 -12 -12 -12 -12 -12 -11 -9 -10 -9 -9 -9 -8
-12 -11 -11 -13 -14 -15 -16 -16 -16 -16 -16 -17 -17 -17 -17 -17 -16 -16 -16 -16 -16 -16 -15 -15 -15 -15 -15 -15 -14 -14 -13 -13 -13 -13 -13 -13 -13 -12 -12 -11 -10 -10 -9
-13 -12 -12 -13 -15 -16 -16 -16 -16 -17 -17 -17 -17 -17 -17 -17 -17 -17 -17 -17 -17 -17 -17 -17 -17 -17 -16 -16 -16 -16 -15 -14 -13 -13 -14 -14 -14 -14 -13 -13 -11 -11 -11
-13 -13 -14 -14 -15 -16 -16 -17 -17 -17 -17 -18 -18 -18 -17 -18 -18 -18 -18 -18 -18 -18 -17 -17 -17 -17 -17 -16 -16 -16 -16 -15 -15 -15 -15 -15 -15 -15 -14 -13 -13 -11 -11
-13 -14 -15 -14 -15 -16 -17 -17 -17 -17 -18 -18 -18 -18 -18 -18 -18 -18 -18 -18 -18 -18 -18 -18 -18 -17 -17 -16 -16 -16 -16 -16 -15 -15 -15 -15 -15 -14 -15 -15 -15 -14 -13
-14 -15 -15 -15 -16 -17 -17 -17 -17 -18 -18 -18 -19 -19 -19 -19 -19 -19 -19 -19 -19 -19 -19 -19 -18 -17 -17 -16 -16 -16 -16 -16 -16 -16 -15 -15 -15 -15 -15 -15 -15 -15 -14
-14 -15 -15 -15 -17 -17 -17 -17 -18 -18 -18 -19 -19 -19 -19 -19 -20 -19 -19 -19 -19 -19 -19 -19 -19 -17 -17 -17 -17 -16 -16 -16 -16 -16 -16 -15 -15 -16 -16 -15 -15 -15 -15
-15 -15 -15 -16 -17 -17 -17 -17 -17 -18 -18 -19 -19 -19 -20 -20 -20 -20 -20 -20 -19 -19 -19 -19 -18 -17 -17 -17 -17 -17 -17 -17 -16 -16 -16 -16 -16 -16 -15 -15 -15 -15 -15
-15 -15 -15 -16 -16 -16 -17 -17 -17 -18 -18 -18 -19 -19 -20 -20 -20 -20 -20 -20 -20 -19 -19 -19 -18 -18 -18 -17 -17 -17 -17 -17 -16 -16 -16 -17 -16 -16 -15 -15 -15 -16 -16

GFSMA_700_temp_006.txt.gz
Temp
2 2 2 2 1 1 1 1 1 1 1 1 1 2 2 2 1 1 0 1 1 -0 -0 -0 0 0 1 1 1 1 1 1 1 1 2 1 1 1 1 0 0 1 2
2 2 1 1 1 1 1 0 0 0 0 1 1 1 1 1 1 0 -0 -0 0 0 0 -0 -1 -1 -0 -0 0 1 1 1 1 1 1 1 1 1 1 1 0 1 1
2 2 1 1 0 -0 0 0 -0 -1 -1 -0 -0 -0 -0 -0 1 0 -0 -1 -1 -1 -0 -1 -1 -1 -1 -1 -1 -0 0 0 0 0 0 1 1 1 1 1 1 0 1
1 0 -0 -1 -1 -1 -1 -1 -1 -1 -1 -1 -1 -1 -1 -2 -2 -2 -1 -1 -1 -1 -1 -1 -2 -2 -1 -2 -2 -1 -1 -1 -0 -0 -0 -0 0 1 0 1 1 0 1
-1 -1 -2 -1 -1 -1 -0 -0 -1 -1 -1 -1 -1 -1 -1 -2 -2 -3 -3 -3 -3 -2 -2 -2 -2 -2 -3 -2 -2 -3 -2 -2 -1 -1 -0 -0 -0 0 1 0 0 1 1
-1 -2 -1 -1 -1 -1 -1 -1 -1 -2 -2 -2 -2 -2 -2 -2 -3 -4 -3 -3 -3 -3 -3 -3 -2 -1 -1 -3 -3 -3 -4 -4 -3 -2 -1 -1 -1 -1 -0 0 0 0 0
-2 -2 -2 -1 -2 -1 -2 -3 -3 -3 -3 -3 -3 -3 -3 -3 -3 -4 -4 -4 -4 -4 -4 -3 -3 -3 -3 -2 -3 -4 -4 -4 -4 -4 -2 -2 -2 -2 -1 -1 -0 -0 -0
-2 -2 -2 -2 -2 -3 -3 -4 -4 -4 -4 -4 -4 -4 -4 -3 -3 -4 -4 -4 -4 -4 -4 -5 -5 -4 -4 -4 -3 -3 -4 -4 -4 -4 -4 -3 -3 -2 -2 -2 -1 -1 -0
-1 -2 -2 -3 -4 -4 -5 -5 -6 -6 -6 -6 -5 -5 -5 -5 -5 -4 -4 -4 -4 -4 -4 -5 -5 -5 -5 -5 -5 -4 -4 -4 -4 -5 -5 -4 -4 -3 -3 -2 -2 -1 -1
-2 -2 -3 -5 -6 -6 -5 -6 -6 -7 -7 -7 -6 -6 -6 -6 -6 -5 -5 -5 -5 -5 -5 -5 -5 -6 -7 -7 -6 -5 -4 -5 -4 -5 -6 -5 -4 -4 -3 -3 -3 -2 -2
-3 -5 -6 -7 -6 -6 -7 -7 -7 -7 -6 -7 -7 -8 -8 -8 -10 -10 -8 -7 -8 -7 -7 -7 -7 -7 -7 -8 -7 -7 -6 -5 -5 -6 -5 -6 -5 -5 -4 -3 -3 -3 -3
-5 -5 -6 -7 -7 -7 -6 -7 -7 -7 -7 -8 -8 -9 -9 -10 -11 -12 -11 -10 -10 -10 -10 -10 -10 -9 -9 -9 -8 -7 -7 -7 -6 -6 -5 -5 -6 -6 -5 -4 -4 -4 -3
-5 -6 -7 -7 -8 -8 -7 -8 -8 -9 -10 -10 -11 -11 -12 -12 -12 -13 -13 -13 -12 -11 -11 -11 -11 -11 -10 -10 -10 -9 -9 -8 -7 -6 -6 -6 -6 -7 -6 -5 -4 -4 -4
-8 -7 -8 -8 -9 -9 -9 -10 -10 -10 -11 -12 -12 -13 -13 -13 -13 -13 -13 -13 -13 -12 -12 -11 -11 -11 -11 -11 -11 -10 -10 -10 -8 -7 -7 -7 -6 -6 -5 -6 -5 -5 -4
-8 -8 -10 -10 -10 -11 -10 -11 -11 -11 -12 -13 -14 -14 -14 -14 -14 -14 -14 -14 -13 -13 -12 -11 -11 -12 -12 -12 -11 -12 -11 -10 -10 -9 -10 -8 -8 -7 -7 -6 -6 -6 -5
-9 -10 -10 -12 -11 -10 -10 -11 -12 -13 -14 -14 -14 -15 -15 -16 -16 -15 -15 -15 -14 -13 -14 -13 -12 -12 -13 -13 -12 -11 -11 -12 -11 -11 -10 -10 -9 -8 -8 -7 -7 -7 -6
-9 -11 -11 -11 -12 -11 -12 -12 -13 -13 -14 -15 -15 -15 -15 -16 -16 -16 -16 -16 -15 -15 -15 -14 -13 -13 -13 -13 -13 -13 -13 -12 -12 -11 -10 -10 -9 -9 -8 -9 -9 -9 -8
-11 -11 -11 -12 -12 -13 -14 -14 -14 -14 -15 -15 -16 -16 -16 -16 -16 -16 -16 -16 -16 -15 -15 -14 -14 -14 -14 -14 -14 -14 -14 -13 -12 -12 -11 -11 -10 -10 -10 -10 -10 -8 -8
-11 -11 -12 -13 -13 -14 -15 -15 -15 -15 -15 -16 -17 -17 -17 -17 -17 -17 -17 -17 -17 -17 -16 -16 -16 -17 -16 -15 -15 -14 -14 -15 -13 -12 -12 -11 -11 -12 -12 -11 -10 -9 -9
-12 -12 -14 -14 -14 -15 -16 -16 -15 -15 -16 -16 -17 -17 -17 -17 -17 -17 -17 -17 -17 -17 -17 -17 -17 -17 -17 -16 -16 -15 -15 -16 -15 -14 -13 -13 -13 -13 -13 -11 -10 -10 -10
-13 -13 -14 -15 -15 -16 -16 -16 -15 -16 -16 -17 -17 -17 -18 -18 -18 -18 -18 -18 -18 -18 -18 -18 -17 -17 -17 -17 -17 -17 -16 -16 -16 -16 -15 -14 -13 -13 -13 -13 -12 -11 -12
-13 -13 -14 -15 -15 -16 -16 -16 -16 -16 -17 -17 -17 -18 -18 -18 -19 -19 -19 -19 -19 -19 -19 -18 -18 -18 -18 -18 -17 -17 -17 -16 -15 -15 -15 -15 -14 -14 -14 -14 -13 -13 -13
-14 -14 -15 -15 -16 -17 -16 -16 -16 -16 -17 -17 -18 -18 -18 -18 -19 -19 -19 -19 -19 -19 -20 -19 -19 -18 -18 -18 -17 -17 -17 -16 -16 -15 -16 -15 -16 -15 -15 -14 -15 -15 -15
-14 -15 -15 -16 -16 -16 -16 -16 -16 -16 -17 -17 -18 -18 -18 -18 -19 -19 -20 -20 -20 -20 -20 -19 -19 -19 -18 -18 -18 -17 -16 -16 -16 -15 -15 -15 -15 -15 -16 -15 -15 -15 -15
-15 -16 -16 -16 -16 -16 -16 -16 -16 -16 -17 -17 -17 -18 -18 -19 -19 -20 -20 -20 -20 -20 -20 -19 -19 -19 -18 -18 -17 -17 -16 -16 -16 -16 -16 -15 -15 -15 -15 -15 -16 -16 -16
-15 -16 -16 -16 -16 -16 -16 -16 -16 -16 -17 -17 -17 -18 -18 -19 -19 -20 -20 -20 -20 -20 -20 -20 -19 -19 -18 -18 -17 -17 -17 -17 -16 -16 -16 -16 -16 -15 -15 -15 -15 -15 -15

GFSMA_700_temp_009.txt.gz
Temp
2 2 1 1 1 1 0 0 0 0 0 0 0 0 0 1 1 1 1 1 1 1 0 -0 0 0 0 1 1 1 1 1 1 1 1 1 2 1 1 1 1 0 0
2 1 1 1 1 0 0 -0 -1 -1 -0 -0 1 -0 -1 -0 0 1 1 1 1 0 0 0 -0 -1 -0 0 0 1 1 0 1 1 1 1 1 1 1 0 1 1 0
1 1 1 1 0 -0 -1 -1 -1 -1 -0 -0 -0 0 -0 -1 -1 -1 -0 -1 -0 -1 -1 -1 -0 -1 -1 -1 -1 0 1 0 0 0 1 1 1 1 1 1 1 1 1
1 0 0 -0 -1 -1 -1 -2 -1 -1 -1 -1 -1 -1 -0 -1 -1 -2 -2 -1 -1 -1 -2 -2 -2 -1 -1 -1 -2 -2 -1 0 0 -0 -0 0 0 1 1 1 1 0 0
-0 -0 -1 -2 -1 -2 -2 -2 -1 -1 -1 -2 -2 -2 -2 -2 -2 -2 -2 -2 -2 -2 -2 -3 -3 -2 -2 -2 -1 -1 -2 -2 -1 -0 -0 -1 -1 -0 0 1 1 1 0
-1 -1 -2 -2 -2 -2 -2 -2 -2 -2 -2 -3 -3 -3 -3 -3 -3 -3 -3 -3 -3 -3 -3 -3 -3 -3 -2 -3 -2 -2 -1 -2 -3 -1 -1 -1 -1 -1 -1 0 1 0 0
-2 -2 -1 -2 -2 -2 -2 -2 -2 -3 -4 -4 -4 -3 -4 -4 -4 -4 -4 -4 -4 -4 -4 -4 -4 -4 -4 -3 -3 -3 -3 -2 -2 -3 -2 -1 -1 -2 -1 -1 -0 0 0
-2 -2 -2 -2 -2 -2 -2 -3 -4 -4 -5 -5 -5 -5 -4 -4 -4 -5 -5 -4 -4 -4 -4 -5 -5 -5 -4 -4 -3 -3 -3 -3 -3 -2 -3 -3 -2 -2 -2 -2 -1 -0 0
-2 -2 -2 -2 -3 -4 -4 -5 -5 -6 -6 -6 -6 -7 -6 -6 -6 -6 -6 -5 -5 -5 -5 -5 -5 -5 -5 -5 -5 -5 -4 -4 -4 -4 -3 -3 -3 -2 -2 -2 -2 -2 -1
-2 -2 -2 -3 -4 -5 -6 -7 -6 -7 -7 -7 -7 -7 -7 -8 -8 -7 -7 -7 -6 -6 -6 -6 -6 -6 -6 -6 -6 -6 -5 -5 -4 -4 -5 -4 -4 -3 -2 -3 -3 -3 -2
-2 -3 -5 -6 -6 -7 -7 -8 -8 -7 -7 -7 -8 -8 -8 -8 -9 -9 -8 -8 -8 -8 -8 -8 -8 -8 -7 -7 -7 -7 -7 -6 -6 -5 -6 -5 -5 -4 -3 -3 -3 -3 -3
-5 -5 -6 -6 -6 -8 -8 -8 -9 -9 -9 -9 -9 -9 -9 -10 -10 -11 -11 -10 -11 -10 -10 -11 -11 -11 -11 -10 -10 -10 -8 -8 -7 -6 -5 -6 -5 -5 -5 -4 -3 -3 -4
-7 -6 -7 -7 -8 -8 -9 -10 -10 -10 -10 -10 -9 -10 -11 -12 -12 -13 -13 -13 -13 -11 -11 -12 -12 -12 -12 -12 -11 -11 -10 -10 -9 -8 -7 -7 -6 -6 -6 -6 -4 -4 -4
-7 -7 -7 -9 -9 -10 -11 -11 -11 -11 -11 -10 -12 -12 -13 -14 -14 -14 -14 -15 -14 -13 -13 -13 -13 -12 -13 -13 -12 -11 -11 -11 -10 -9 -8 -8 -7 -6 -6 -5 -5 -4 -4
-7 -8 -10 -9 -10 -10 -11 -11 -12 -11 -11 -12 -12 -14 -14 -14 -14 -14 -15 -16 -16 -15 -14 -14 -14 -14 -14 -13 -13 -12 -12 -11 -11 -11 -10 -9 -8 -8 -8 -6 -6 -6 -5
-9 -10 -11 -10 -10 -11 -12 -13 -13 -12 -13 -13 -14 -15 -15 -14 -15 -15 -16 -16 -16 -16 -15 -15 -14 -14 -14 -14 -13 -13 -13 -12 -12 -12 -11 -10 -10 -9 -9 -8 -7 -7 -7
-10 -11 -11 -11 -11 -11 -13 -14 -13 -14 -13 -14 -15 -15 -16 -15 -15 -16 -16 -16 -16 -16 -16 -16 -15 -15 -15 -15 -14 -14 -14 -13 -12 -12 -12 -11 -11 -10 -9 -9 -8 -8 -7
-11 -11 -12 -12 -13 -13 -13 -13 -14 -14 -14 -15 -15 -16 -16 -16 -16 -16 -16 -16 -16 -17 -17 -16 -16 -15 -16 -15 -15 -15 -14 -14 -13 -12 -12 -11 -11 -11 -10 -10 -9 -8 -9
-11 -12 -13 -13 -13 -14 -13 -15 -15 -15 -16 -16 -16 -16 -16 -16 -16 -16 -17 -17 -17 -17 -17 -17 -17 -16 -16 -17 -16 -15 -15 -15 -14 -13 -12 -12 -12 -11 -10 -10 -9 -9 -10
-12 -13 -13 -13 -14 -14 -15 -16 -16 -16 -16 -16 -16 -17 -17 -17 -17 -17 -17 -17 -18 -18 -18 -18 -18 -17 -17 -17 -17 -17 -16 -16 -15 -14 -13 -12 -12 -11 -12 -11 -10 -10 -10
-12 -13 -14 -14 -14 -15 -16 -16 -16 -16 -16 -16 -17 -17 -17 -17 -17 -18 -18 -18 -18 -19 -19 -19 -19 -18 -18 -18 -17 -17 -17 -16 -15 -15 -14 -13 -12 -13 -12 -13 -12 -12 -13
-13 -14 -14 -14 -14 -16 -16 -16 -16 -16 -16 -16 -16 -16 -17 -17 -17 -18 -18 -19 -19 -19 -20 -20 -20 -20 -20 -19 -18 -18 -17 -16 -16 -16 -15 -14 -14 -13 -14 -13 -13 -13 -13
-13 -14 -14 -15 -15 -16 -16 -16 -16 -16 -16 -16 -16 -17 -17 -17 -17 -18 -19 -19 -19 -20 -20 -20 -20 -20 -20 -20 -19 -18 -18 -17 -16 -16 -16 -15 -15 -15 -14 -14 -14 -14 -13
-14 -14 -15 -15 -16 -16 -16 -16 -16 -16 -16 -16 -17 -17 -17 -17 -18 -19 -19 -19 -20 -20 -21 -21 -20 -20 -19 -19 -19 -18 -18 -17 -16 -16 -16 -15 -15 -15 -15 -15 -14 -14 -14
-15 -15 -15 -16 -16 -16 -16 -16 -16 -16 -16 -16 -17 -17 -17 -18 -18 -19 -19 -20 -20 -21 -21 -21 -20 -20 -20 -19 -19 -18 -18 -17 -16 -16 -16 -15 -15 -15 -15 -15 -15 -15 -15
-15 -16 -16 -16 -16 -16 -16 -16 -16 -16 -16 -16 -17 -17 -17 -18 -18 -19 -19 -20 -20 -20 -20 -20 -20 -20 -19 -19 -19 -19 -18 -17 -16 -16 -16 -16 -15 -15 -15 -15 -15 -15 -15

GFSMA_700_temp_015.txt.gz
Temp
2 1 1 1 1 0 0 0 -0 -0 -0 -0 -0 0 0 1 1 1 1 1 1 1 1 1 1 1 1 1 1 1 1 1 1 1 1 2 2 2 1 2 1 1 1
1 1 1 1 0 -0 -1 -1 -1 -1 -1 -1 -1 -1 -0 0 0 0 0 0 1 1 0 0 1 1 1 0 0 0 1 1 1 1 1 1 1 1 1 2 1 1 1
1 1 0 -0 -0 -1 -1 -1 -1 -2 -1 -1 -1 -1 -1 -1 -1 -1 -1 -1 -1 -1 -1 -1 -1 -0 0 0 0 -0 -0 -0 -0 0 1 1 0 0 1 1 1 1 1
0 0 -1 -1 -0 -1 -1 -2 -1 -1 -2 -2 -2 -2 -2 -2 -2 -2 -2 -2 -3 -3 -2 -2 -2 -1 -1 -1 -0 -0 -1 -1 -1 -1 -1 -0 1 0 1 1 0 1 1
-0 -0 -0 -1 -1 -2 -1 -1 -2 -2 -2 -2 -2 -2 -2 -2 -3 -3 -3 -3 -3 -3 -3 -3 -3 -3 -2 -2 -1 -1 -1 -1 -1 -2 -1 -1 -1 -1 -1 -0 -0 0 1
-0 -1 -1 -2 -2 -2 -2 -2 -2 -2 -2 -2 -2 -2 -2 -3 -4 -4 -4 -4 -4 -4 -4 -4 -4 -3 -4 -3 -3 -2 -2 -2 -2 -2 -2 -2 -1 -2 -1 -1 -1 -0 0
-1 -2 -2 -2 -2 -2 -2 -2 -2 -2 -3 -3 -3 -4 -4 -4 -4 -5 -5 -5 -5 -5 -5 -5 -5 -5 -4 -4 -4 -4 -3 -3 -3 -3 -2 -3 -3 -2 -2 -2 -1 -1 -0
-1 -1 -1 -2 -2 -2 -3 -3 -3 -3 -3 -4 -4 -5 -5 -6 -6 -6 -6 -7 -7 -7 -7 -7 -7 -6 -6 -6 -5 -5 -5 -4 -4 -4 -4 -3 -3 -3 -2 -2 -3 -2 -1
-1 -1 -2 -3 -3 -3 -3 -3 -4 -5 -5 -6 -6 -7 -8 -8 -8 -8 -8 -8 -8 -8 -7 -7 -7 -7 -7 -7 -7 -6 -6 -5 -5 -5 -4 -4 -4 -4 -3 -2 -3 -3 -2
-2 -2 -3 -3 -3 -4 -5 -5 -6 -7 -8 -8 -8 -9 -10 -10 -10 -10 -9 -9 -9 -9 -9 -9 -9 -9 -8 -8 -8 -7 -7 -6 -6 -5 -5 -5 -5 -4 -4 -4 -3 -3 -3
-3 -4 -4 -5 -5 -6 -7 -7 -8 -9 -9 -9 -10 -10 -11 -11 -11 -11 -10 -10 -10 -10 -10 -10 -10 -10 -10 -11 -10 -10 -9 -8 -7 -6 -6 -6 -5 -5 -5 -4 -4 -3 -3
-4 -5 -5 -6 -6 -7 -7 -8 -9 -11 -10 -10 -11 -11 -11 -12 -11 -12 -11 -11 -10 -10 -11 -11 -11 -12 -12 -12 -12 -12 -11 -11 -10 -9 -7 -6 -6 -5 -6 -6 -5 -5 -4
-5 -5 -6 -7 -7 -8 -8 -9 -10 -11 -11 -11 -11 -12 -12 -12 -12 -13 -13 -13 -13 -12 -12 -13 -13 -13 -14 -13 -13 -13 -13 -12 -12 -11 -10 -9 -8 -6 -6 -6 -6 -5 -5
-6 -7 -7 -7 -8 -8 -9 -10 -11 -11 -12 -12 -12 -13 -13 -13 -14 -14 -14 -14 -14 -14 -14 -13 -13 -14 -14 -14 -14 -14 -14 -13 -13 -12 -12 -11 -11 -9 -8 -7 -6 -6 -6
-7 -7 -7 -8 -9 -9 -10 -12 -12 -13 -13 -13 -13 -14 -14 -14 -14 -14 -15 -15 -16 -15 -14 -14 -14 -14 -14 -14 -14 -15 -14 -14 -14 -13 -13 -12 -12 -11 -10 -10 -9 -8 -7
-7 -8 -8 -9 -10 -11 -12 -13 -13 -13 -14 -14 -14 -14 -14 -14 -15 -15 -15 -16 -16 -16 -16 -15 -15 -15 -15 -15 -15 -15 -15 -15 -14 -14 -13 -13 -12 -11 -11 -10 -11 -10 -8
-8 -9 -9 -10 -11 -12 -12 -13 -14 -14 -14 -14 -15 -15 -15 -15 -15 -16 -16 -16 -16 -17 -17 -15 -16 -15 -15 -15 -15 -16 -16 -15 -15 -14 -14 -14 -13 -12 -12 -11 -11 -11 -10
-9 -10 -10 -11 -12 -12 -13 -14 -14 -14 -15 -15 -15 -15 -15 -15 -15 -16 -16 -16 -16 -17 -17 -16 -16 -16 -16 -16 -16 -16 -17 -16 -16 -15 -15 -14 -13 -13 -13 -12 -12 -11 -11
-10 -10 -11 -12 -12 -14 -14 -15 -15 -15 -15 -15 -15 -15 -15 -15 -16 -16 -16 -16 -17 -17 -17 -17 -17 -17 -17 -17 -17 -18 -17 -17 -16 -16 -15 -15 -14 -13 -13 -13 -12 -12 -11
-11 -11 -12 -13 -13 -14 -15 -15 -15 -15 -15 -16 -15 -16 -16 -16 -16 -16 -16 -16 -17 -17 -18 -18 -18 -18 -18 -18 -18 -18 -18 -18 -18 -16 -16 -16 -15 -14 -13 -13 -13 -12 -11
-12 -12 -13 -13 -14 -14 -15 -15 -15 -16 -16 -16 -16 -16 -16 -16 -16 -16 -16 -17 -17 -17 -18 -18 -19 -19 -19 -19 -20 -19 -19 -19 -18 -17 -17 -16 -15 -15 -14 -13 -13 -12 -12
-12 -13 -13 -14 -14 -15 -15 -16 -16 -16 -16 -16 -16 -16 -16 -16 -16 -16 -17 -17 -17 -18 -18 -19 -20 -21 -20 -20 -20 -20 -19 -19 -19 -19 -18 -17 -16 -15 -14 -14 -13 -12 -12
-13 -13 -14 -14 -15 -15 -16 -16 -16 -16 -16 -16 -16 -16 -16 -16 -16 -17 -17 -17 -18 -19 -19 -20 -20 -21 -21 -21 -21 -20 -20 -20 -19 -19 -18 -17 -17 -16 -15 -14 -14 -13 -12
-13 -14 -14 -15 -15 -16 -16 -16 -16 -16 -16 -16 -16 -16 -16 -16 -17 -17 -17 -17 -18 -19 -19 -20 -21 -21 -21 -21 -21 -21 -20 -20 -20 -19 -19 -18 -17 -17 -16 -15 -14 -13 -14
-14 -14 -14 -15 -15 -16 -16 -16 -16 -16 -16 -17 -17 -17 -17 -17 -17 -17 -17 -18 -18 -19 -19 -20 -21 -21 -21 -21 -21 -21 -21 -21 -20 -19 -19 -18 -17 -17 -16 -16 -15 -14 -14
-14 -15 -15 -15 -16 -16 -16 -16 -16 -16 -17 -17 -17 -17 -17 -17 -17 -18 -18 -18 -18 -19 -19 -20 -20 -20 -21 -20 -21 -20 -21 -21 -21 -20 -19 -18 -18 -17 -17 -16 -16 -16 -15

GFSMA_700_temp_021.txt.gz
Temp
1 1 0 0 -0 -1 -0 0 0 0 0 0 0 1 1 0 0 0 -0 0 1 1 1 1 1 1 1 1 1 1 1 0 1 1 2 2 1 1 1 1 1 1 1
0 1 0 -0 -1 -0 -0 0 0 0 0 -0 -1 -0 -0 -0 -0 -0 0 -1 -0 0 0 -0 -0 -0 0 0 1 1 1 1 0 -0 0 1 1 1 0 1 1 1 1
1 0 0 -0 -0 -0 0 0 -0 -0 -1 -1 -1 -1 -1 -1 -2 -2 -1 -1 -2 -2 -1 -0 -1 -1 -1 -1 -1 -0 0 0 1 0 -0 -0 0 1 0 -0 0 1 0
0 -0 -0 -0 -0 0 0 -0 -1 -1 -1 -2 -2 -1 -1 -1 -2 -2 -2 -5 -6 -3 -3 -3 -1 -1 -2 -1 -1 -1 -1 -1 -1 -0 -0 -0 -1 -0 0 0 -0 -0 0
0 0 1 1 -0 -1 -1 -1 -1 -2 -2 -2 -2 -1 -1 -2 -2 -3 -3 -4 -5 -5 -4 -2 -3 -3 -3 -2 -2 -2 -3 -2 -2 -2 -1 -1 -1 -1 -1 -0 -0 -0 -0
1 0 0 -0 -1 -1 -1 -1 -2 -2 -2 -2 -2 -1 -2 -2 -3 -3 -4 -6 -7 -6 -6 -5 -2 -4 -3 -2 -4 -5 -4 -4 -4 -3 -3 -2 -2 -2 -2 -1 -1 -1 -1
-0 -1 -1 -1 -1 -1 -1 -2 -2 -2 -2 -2 -3 -2 -2 -2 -4 -6 -8 -8 -7 -6 -8 -8 -8 -7 -5 -6 -6 -6 -6 -6 -5 -5 -4 -4 -3 -3 -2 -3 -2 -2 -2
-1 -1 -1 -1 -2 -2 -2 -2 -3 -3 -3 -3 -4 -4 -4 -4 -5 -8 -7 -8 -8 -9 -10 -10 -9 -9 -9 -8 -8 -8 -8 -7 -7 -7 -6 -6 -5 -4 -4 -3 -3 -3 -2
-1 -1 -1 -1 -2 -2 -3 -3 -3 -4 -4 -5 -5 -6 -6 -7 -7 -7 -8 -8 -9 -10 -11 -11 -11 -10 -10 -9 -9 -9 -9 -8 -8 -8 -7 -7 -6 -6 -5 -5 -4 -4 -3
-1 -1 -2 -2 -3 -3 -3 -4 -5 -5 -5 -6 -6 -7 -8 -10 -11 -10 -11 -12 -12 -12 -12 -13 -13 -13 -11 -11 -11 -11 -11 -10 -9 -9 -9 -8 -8 -7 -6 -6 -5 -5 -5
-2 -2 -3 -3 -3 -4 -4 -5 -5 -5 -6 -7 -8 -8 -10 -11 -12 -13 -13 -13 -13 -13 -13 -14 -14 -14 -14 -14 -12 -12 -12 -11 -10 -10 -10 -9 -9 -9 -8 -7 -6 -6 -5
-3 -3 -3 -4 -4 -5 -5 -6 -6 -7 -8 -9 -10 -10 -13 -13 -14 -14 -14 -14 -14 -14 -14 -14 -14 -14 -15 -15 -15 -15 -13 -11 -12 -12 -11 -11 -10 -9 -9 -8 -7 -7 -6
-3 -3 -4 -5 -5 -6 -6 -7 -7 -8 -11 -12 -12 -13 -14 -14 -14 -15 -15 -15 -15 -14 -14 -15 -15 -15 -15 -16 -16 -16 -14 -13 -13 -12 -12 -12 -11 -11 -10 -9 -9 -7 -7
-3 -4 -5 -5 -6 -6 -7 -7 -9 -11 -12 -12 -13 -14 -14 -15 -15 -15 -15 -15 -15 -15 -15 -15 -16 -16 -16 -16 -17 -17 -15 -13 -13 -13 -13 -12 -12 -12 -12 -11 -11 -10 -9
-5 -5 -5 -6 -6 -7 -8 -9 -11 -11 -12 -12 -13 -13 -14 -15 -15 -15 -15 -16 -16 -15 -15 -15 -16 -17 -17 -17 -17 -17 -15 -14 -13 -13 -13 -13 -13 -12 -13 -12 -12 -11 -10
-5 -5 -6 -6 -7 -8 -9 -11 -11 -11 -12 -12 -13 -14 -15 -15 -15 -16 -16 -16 -16 -16 -16 -16 -16 -17 -17 -18 -18 -17 -15 -14 -14 -14 -14 -14 -13 -13 -13 -13 -13 -12 -11
-5 -6 -6 -7 -8 -9 -10 -11 -12 -12 -12 -13 -13 -15 -15 -15 -16 -16 -16 -17 -17 -17 -17 -16 -17 -16 -16 -16 -16 -16 -16 -15 -14 -15 -15 -15 -14 -14 -14 -13 -13 -13 -12
-6 -7 -7 -8 -9 -11 -11 -12 -12 -13 -13 -14 -15 -15 -15 -16 -16 -16 -17 -17 -18 -18 -18 -17 -15 -16 -16 -16 -16 -16 -16 -18 -17 -16 -17 -16 -16 -15 -15 -14 -14 -13 -12
-7 -8 -8 -9 -10 -10 -12 -13 -14 -14 -15 -15 -15 -15 -15 -16 -16 -16 -16 -16 -16 -16 -16 -16 -15 -16 -16 -16 -17 -18 -19 -18 -18 -18 -16 -16 -16 -16 -16 -15 -14 -14 -13
-8 -8 -9 -10 -12 -12 -14 -13 -14 -14 -15 -15 -15 -16 -16 -16 -16 -16 -16 -16 -16 -16 -16 -16 -17 -17 -17 -17 -19 -19 -19 -19 -19 -18 -17 -16 -16 -16 -16 -16 -15 -14 -13
-8 -9 -10 -11 -12 -13 -14 -14 -14 -15 -15 -16 -16 -16 -16 -16 -16 -16 -16 -16 -16 -16 -17 -17 -17 -17 -18 -19 -20 -19 -19 -19 -19 -18 -17 -17 -16 -17 -17 -16 -16 -15 -14
-9 -10 -11 -11 -12 -13 -13 -14 -14 -15 -15 -15 -16 -16 -16 -16 -16 -16 -16 -16 -16 -17 -17 -18 -18 -18 -18 -19 -20 -20 -20 -20 -19 -19 -18 -18 -17 -17 -17 -17 -17 -15 -14
-10 -11 -12 -12 -13 -14 -14 -14 -15 -15 -15 -16 -16 -16 -16 -17 -17 -17 -17 -17 -17 -17 -18 -17 -18 -18 -19 -20 -20 -20 -20 -20 -20 -19 -19 -18 -18 -18 -18 -17 -17 -15 -15
-11 -12 -12 -12 -13 -13 -14 -15 -15 -15 -16 -16 -16 -16 -16 -17 -17 -17 -17 -17 -17 -18 -18 -18 -19 -19 -19 -19 -20 -20 -20 -20 -20 -20 -19 -19 -19 -19 -18 -18 -18 -15 -15
-11 -12 -13 -13 -14 -14 -14 -15 -15 -15 -16 -16 -16 -16 -17 -17 -17 -18 -17 -17 -18 -18 -18 -18 -18 -19 -19 -19 -20 -20 -20 -20 -20 -20 -20 -19 -19 -19 -18 -18 -18 -16 -15
-12 -13 -13 -14 -15 -15 -15 -15 -16 -16 -16 -16 -16 -17 -17 -17 -18 -18 -18 -18 -18 -18 -18 -18 -18 -19 -19 -19 -20 -20 -20 -21 -21 -20 -20 -19 -19 -19 -19 -18 -17 -16 -15

GFSMA_700_temp_024.txt.gz
Temp
2 1 1 1 1 1 1 0 0 -0 -0 0 -0 -0 0 0 0 0 0 1 1 1 1 2 1 2 1 1 1 0 -0 -0 0 1 1 1 1 1 1 2 2 2 2
2 1 1 0 1 1 1 -0 -0 -0 0 0 -0 -0 -0 -1 -0 -1 -1 -1 -0 -0 0 1 1 1 1 1 1 1 0 -0 -0 -1 -0 0 1 1 1 1 1 1 2
2 1 1 1 1 0 1 0 0 0 1 0 -0 -0 -1 -1 -1 -1 -1 -1 -2 -1 -1 0 1 1 1 -0 0 1 0 -0 -0 -1 -1 -1 -0 -0 0 0 1 1 1
1 0 0 1 -0 0 0 0 1 0 -0 -0 -0 -1 -1 -1 -1 -2 -2 -2 -3 -4 -4 -3 -2 0 0 -0 -1 0 -0 -0 -0 -1 -1 -1 -1 -1 -1 -1 -1 0 1
1 1 1 1 0 0 0 0 0 0 0 -0 -1 -1 -1 -1 -2 -2 -3 -3 -4 -6 -7 -7 -5 -6 -4 -1 -1 -1 -2 -2 -1 -1 -1 -2 -2 -2 -2 -2 -2 -2 -1
1 1 1 1 0 0 0 -0 -0 -1 -1 -1 -1 -1 -1 -1 -2 -3 -4 -6 -7 -7 -7 -7 -6 -6 -6 -5 -4 -3 -3 -5 -5 -5 -3 -2 -3 -3 -3 -3 -3 -2 -2
1 0 -0 -0 -0 -0 -0 -0 -0 -1 -1 -1 -1 -2 -2 -2 -2 -4 -4 -5 -6 -7 -8 -8 -8 -9 -9 -8 -8 -8 -8 -7 -7 -7 -8 -7 -5 -4 -4 -4 -3 -3 -3
0 -0 -1 -1 -1 -0 -1 -1 -1 -1 -1 -2 -3 -3 -2 -2 -3 -3 -5 -6 -7 -8 -9 -9 -9 -9 -10 -10 -10 -10 -10 -10 -9 -9 -8 -8 -8 -7 -6 -5 -5 -4 -4
-0 -0 -1 -1 -1 -1 -1 -2 -2 -2 -2 -3 -3 -4 -3 -3 -4 -5 -6 -7 -8 -8 -9 -10 -11 -11 -12 -12 -11 -11 -11 -11 -10 -10 -10 -9 -9 -8 -8 -7 -6 -6 -5
-1 -1 -1 -1 -1 -1 -2 -2 -3 -3 -4 -4 -4 -5 -5 -6 -7 -7 -9 -10 -11 -12 -12 -12 -12 -13 -13 -13 -13 -13 -13 -12 -11 -10 -10 -10 -10 -10 -9 -8 -7 -7 -6
-1 -2 -2 -2 -2 -3 -3 -3 -3 -4 -4 -5 -6 -7 -7 -8 -10 -10 -10 -12 -12 -12 -13 -14 -14 -14 -14 -14 -14 -14 -14 -12 -12 -11 -11 -11 -11 -10 -10 -9 -9 -8 -7
-2 -2 -2 -3 -3 -3 -4 -4 -4 -5 -6 -7 -7 -9 -10 -11 -12 -13 -13 -13 -13 -12 -13 -14 -14 -14 -14 -15 -15 -15 -14 -14 -13 -13 -12 -12 -12 -11 -11 -11 -10 -9 -8
-2 -3 -3 -3 -3 -4 -4 -5 -6 -7 -8 -9 -11 -11 -11 -12 -13 -13 -14 -14 -14 -13 -13 -14 -14 -15 -15 -15 -15 -15 -14 -13 -13 -13 -13 -12 -12 -12 -12 -11 -11 -10 -9
-2 -3 -4 -3 -4 -4 -5 -5 -6 -8 -9 -11 -11 -12 -12 -13 -13 -14 -14 -14 -14 -14 -14 -13 -14 -15 -15 -15 -15 -15 -14 -14 -14 -13 -13 -13 -13 -12 -12 -12 -12 -11 -11
-3 -4 -4 -4 -4 -5 -6 -6 -8 -9 -11 -11 -11 -12 -12 -13 -13 -14 -14 -15 -15 -15 -14 -14 -14 -15 -15 -16 -15 -15 -15 -14 -14 -14 -14 -13 -13 -13 -13 -13 -13 -12 -12
-4 -4 -4 -4 -5 -5 -7 -7 -8 -10 -11 -12 -12 -13 -13 -13 -14 -14 -14 -15 -15 -16 -16 -15 -15 -16 -16 -15 -16 -15 -15 -15 -14 -14 -14 -14 -13 -13 -13 -13 -13 -13 -13
-4 -4 -5 -5 -6 -7 -7 -9 -10 -11 -11 -12 -13 -13 -13 -14 -14 -14 -14 -15 -16 -16 -16 -15 -15 -16 -16 -16 -16 -16 -15 -15 -15 -15 -14 -14 -14 -14 -14 -14 -14 -14 -14
-5 -5 -6 -6 -7 -8 -9 -10 -10 -11 -12 -12 -13 -14 -14 -14 -14 -15 -15 -15 -16 -16 -16 -16 -15 -16 -16 -16 -16 -16 -16 -16 -16 -15 -16 -16 -16 -16 -16 -15 -15 -15 -14
-6 -7 -7 -8 -8 -9 -10 -10 -11 -13 -13 -14 -14 -14 -15 -15 -15 -15 -15 -15 -16 -16 -16 -16 -16 -16 -16 -16 -16 -17 -17 -17 -17 -18 -18 -18 -17 -17 -16 -16 -16 -15 -15
-7 -7 -8 -8 -9 -10 -11 -11 -13 -14 -14 -14 -14 -15 -15 -16 -15 -15 -15 -16 -16 -16 -16 -16 -16 -16 -17 -17 -17 -17 -17 -18 -18 -18 -19 -18 -18 -17 -16 -16 -16 -16 -16
-8 -8 -8 -9 -10 -11 -11 -12 -13 -14 -14 -14 -14 -15 -16 -16 -16 -15 -16 -16 -16 -17 -17 -17 -17 -17 -17 -17 -17 -18 -19 -19 -19 -19 -19 -19 -18 -17 -16 -17 -16 -16 -16
-9 -9 -10 -10 -11 -12 -12 -13 -14 -14 -14 -15 -15 -15 -16 -16 -16 -15 -16 -16 -16 -17 -17 -17 -17 -17 -17 -18 -18 -19 -19 -19 -19 -19 -19 -18 -19 -18 -17 -17 -16 -16 -16
-10 -10 -11 -11 -12 -12 -12 -13 -14 -15 -15 -15 -15 -15 -16 -16 -16 -17 -17 -17 -18 -18 -18 -18 -18 -18 -18 -18 -19 -19 -19 -19 -19 -20 -20 -19 -19 -18 -18 -17 -17 -17 -16
-10 -11 -11 -12 -12 -13 -13 -14 -14 -15 -15 -15 -15 -16 -16 -16 -16 -17 -17 -17 -18 -18 -18 -18 -18 -18 -18 -19 -19 -19 -19 -19 -19 -20 -20 -19 -19 -19 -19 -18 -18 -17 -17
-11 -11 -12 -12 -13 -13 -13 -14 -15 -15 -15 -15 -15 -16 -16 -16 -17 -17 -17 -17 -18 -18 -18 -18 -18 -18 -18 -19 -19 -19 -20 -20 -20 -20 -20 -20 -19 -19 -18 -18 -18 -18 -17
-11 -12 -12 -13 -14 -13 -14 -14 -15 -15 -15 -15 -16 -16 -16 -16 -17 -17 -17 -18 -18 -18 -18 -18 -18 -18 -19 -19 -19 -21 -21 -20 -21 -20 -21 -20 -20 -19 -19 -18 -18 -17 -17

GFSMA_700_temp_027.txt.gz
Temp
3 2 1 1 1 1 1 0 0 0 0 0 0 1 1 0 0 0 -0 -0 0 1 0 1 1 2 1 1 0 0 0 1 1 1 1 0 0 0 0 0 0 1 1
2 1 1 1 1 1 1 1 0 1 1 1 1 1 0 0 0 -0 -0 -1 -0 -1 -1 0 1 2 1 1 1 0 0 -0 -0 -0 0 1 1 1 -0 -0 0 -0 0
2 2 2 1 1 1 1 1 1 1 1 1 1 0 0 0 0 -0 -1 -1 -1 -1 -1 -1 -0 1 1 1 1 1 0 -0 -0 -1 -1 -1 0 0 0 -0 -0 -0 -1
2 2 1 1 1 1 1 1 1 1 1 1 1 0 0 0 0 -0 -1 -1 -1 -1 -2 -2 -1 -1 -1 0 0 0 -0 -1 -1 -1 -1 -2 -1 -1 -0 0 -0 -0 -0
2 1 1 1 1 1 1 1 0 1 1 1 0 0 -0 -0 -0 -1 -1 -1 -1 -2 -2 -3 -2 -2 -2 -2 -3 -2 -2 -2 -2 -2 -2 -2 -1 -3 -3 -2 -1 -1 -1
1 1 1 1 1 0 -0 0 0 -0 -0 -0 0 -0 -0 -0 -1 -1 -1 -2 -2 -3 -4 -5 -5 -5 -5 -4 -5 -5 -7 -8 -6 -5 -4 -4 -3 -2 -3 -4 -3 -2 -1
1 1 1 1 -0 -0 -0 -0 -0 -0 -0 -0 -0 -0 -1 -1 -1 -2 -2 -3 -4 -5 -7 -7 -8 -8 -8 -8 -9 -9 -9 -9 -9 -9 -9 -8 -7 -6 -4 -4 -5 -5 -3
1 0 -0 -0 -1 -1 -1 -1 -1 -1 -1 -1 -1 -1 -1 -1 -1 -2 -3 -4 -5 -7 -8 -9 -9 -9 -9 -9 -10 -10 -10 -10 -10 -10 -10 -11 -10 -9 -9 -8 -6 -6 -6
-0 -0 -0 -0 -1 -1 -1 -1 -1 -1 -1 -2 -2 -2 -2 -2 -2 -3 -4 -5 -7 -8 -8 -9 -9 -10 -11 -11 -11 -12 -12 -12 -11 -11 -11 -11 -11 -11 -10 -10 -9 -8 -7
-0 -1 -1 -1 -1 -1 -1 -2 -2 -2 -2 -2 -3 -4 -4 -4 -5 -4 -6 -7 -8 -10 -11 -12 -12 -12 -13 -13 -13 -13 -13 -12 -11 -11 -11 -11 -11 -11 -11 -11 -10 -10 -9
-2 -2 -2 -2 -2 -2 -2 -3 -3 -3 -3 -3 -4 -4 -5 -6 -7 -8 -7 -9 -10 -11 -12 -12 -13 -13 -14 -14 -14 -14 -14 -13 -13 -12 -12 -12 -11 -11 -11 -11 -11 -10 -10
-2 -2 -2 -2 -2 -3 -3 -3 -3 -4 -4 -4 -5 -6 -7 -8 -10 -11 -11 -11 -12 -12 -12 -13 -13 -14 -14 -14 -14 -15 -14 -13 -13 -13 -13 -13 -13 -13 -12 -12 -12 -11 -10
-3 -2 -2 -2 -2 -3 -4 -4 -4 -5 -5 -6 -7 -7 -8 -10 -11 -12 -12 -12 -12 -12 -13 -13 -13 -14 -14 -14 -15 -15 -14 -13 -14 -14 -14 -13 -13 -13 -13 -12 -12 -11 -11
-3 -3 -2 -3 -3 -4 -4 -4 -5 -5 -6 -6 -7 -9 -10 -11 -12 -13 -13 -13 -13 -13 -13 -14 -13 -14 -14 -14 -14 -14 -14 -14 -14 -14 -13 -14 -14 -13 -13 -13 -13 -12 -12
-3 -4 -3 -4 -5 -5 -5 -5 -6 -6 -7 -8 -9 -10 -11 -12 -13 -13 -13 -13 -14 -14 -14 -14 -14 -15 -15 -15 -14 -14 -15 -14 -14 -14 -14 -14 -14 -14 -13 -13 -13 -13 -12
-4 -4 -4 -5 -5 -6 -6 -6 -7 -8 -8 -9 -10 -11 -12 -12 -13 -13 -14 -14 -14 -15 -15 -15 -15 -15 -15 -15 -15 -15 -15 -15 -15 -15 -15 -14 -14 -14 -13 -13 -13 -13 -13
-4 -5 -6 -6 -6 -7 -7 -8 -8 -10 -10 -11 -12 -12 -13 -13 -14 -14 -14 -14 -15 -15 -15 -15 -15 -15 -15 -15 -15 -16 -15 -15 -15 -15 -15 -15 -15 -14 -14 -14 -14 -14 -14
-5 -6 -7 -8 -7 -8 -8 -8 -9 -10 -12 -12 -13 -13 -13 -14 -14 -14 -15 -15 -15 -16 -16 -16 -15 -15 -15 -16 -16 -16 -16 -16 -16 -15 -16 -16 -16 -16 -16 -15 -15 -15 -15
-8 -8 -9 -9 -8 -9 -9 -9 -9 -10 -12 -13 -14 -14 -14 -14 -15 -15 -15 -15 -16 -16 -16 -16 -16 -16 -16 -16 -16 -16 -16 -16 -16 -16 -17 -17 -18 -18 -18 -17 -17 -16 -16
-10 -10 -10 -11 -10 -10 -10 -11 -11 -12 -13 -13 -14 -14 -14 -14 -15 -15 -14 -15 -16 -16 -16 -16 -16 -16 -16 -17 -17 -17 -16 -17 -17 -17 -18 -18 -18 -18 -18 -17 -17 -17 -16
-11 -11 -11 -11 -11 -10 -10 -11 -12 -12 -13 -14 -14 -14 -14 -15 -15 -15 -15 -16 -16 -16 -17 -17 -17 -17 -17 -17 -17 -17 -17 -17 -17 -18 -18 -18 -18 -18 -18 -17 -17 -17 -16
-12 -11 -11 -12 -11 -11 -11 -12 -13 -13 -14 -14 -14 -15 -15 -15 -15 -15 -16 -16 -16 -17 -17 -17 -17 -17 -17 -17 -17 -17 -18 -17 -17 -18 -19 -18 -19 -19 -19 -18 -17 -17 -17
-10 -11 -12 -12 -12 -11 -12 -12 -13 -14 -14 -14 -15 -15 -15 -15 -15 -16 -16 -17 -17 -18 -18 -18 -17 -18 -18 -18 -18 -18 -18 -18 -19 -19 -18 -18 -19 -19 -19 -18 -18 -17 -17
-11 -12 -12 -11 -11 -11 -13 -13 -14 -14 -15 -15 -15 -15 -15 -15 -16 -16 -16 -17 -17 -18 -18 -18 -18 -18 -18 -18 -18 -18 -19 -19 -19 -20 -20 -18 -19 -19 -18 -18 -18 -18 -17
-12 -11 -11 -11 -12 -12 -13 -14 -14 -15 -15 -15 -15 -15 -15 -16 -16 -16 -17 -17 -17 -18 -18 -18 -18 -18 -18 -18 -19 -19 -19 -19 -19 -20 -20 -19 -19 -19 -19 -18 -18 -18 -18
-11 -11 -11 -12 -12 -13 -14 -14 -15 -15 -15 -15 -15 -15 -16 -16 -16 -17 -17 -17 -17 -18 -18 -18 -18 -18 -18 -19 -19 -19 -19 -19 -19 -18 -19 -20 -19 -20 -19 -19 -19 -18 -18

GFSMA_700_temp_030.txt.gz
Temp
3 2 2 2 2 2 1 1 1 1 1 0 0 0 0 1 1 1 0 0 0 0 1 1 1 1 2 2 1 1 1 1 1 0 0 0 0 0 1 0 -0 0 1
3 2 2 1 1 1 1 1 1 1 1 1 1 0 0 0 0 -0 -0 -0 -0 0 -0 0 0 1 1 2 2 2 1 0 0 0 -0 1 1 0 -0 0 0 -0 -0
2 2 1 2 1 2 1 1 1 1 1 1 1 0 0 0 0 0 -0 -0 -0 -0 -0 -0 -0 1 1 1 1 1 2 1 1 -0 -0 -0 -0 0 -0 -1 -1 -1 -1
2 2 1 1 1 1 1 1 1 1 1 1 1 0 -0 -0 -0 -0 -0 -0 -0 -0 -1 -1 0 0 0 0 0 0 1 1 1 1 0 -1 -1 -1 -1 -1 -1 -1 -1
2 2 2 2 1 1 1 1 1 1 0 0 0 0 -0 -0 -0 -0 -1 -1 -1 -1 -2 -1 -1 -1 -0 0 1 1 -0 -1 -2 -1 -1 -1 -1 -1 -2 -3 -1 -1 -2
3 2 2 1 1 1 1 1 0 -0 -0 0 -0 -0 -1 -1 -1 -1 -1 -2 -2 -2 -3 -3 -3 -4 -4 -5 -4 -5 -4 -5 -5 -7 -8 -7 -6 -4 -2 -2 -3 -3 -2
2 1 1 1 1 0 -0 -0 0 0 -0 -0 -0 -1 -1 -1 -1 -2 -2 -2 -3 -4 -4 -5 -5 -6 -7 -8 -8 -9 -9 -9 -9 -9 -9 -9 -9 -8 -7 -6 -4 -4 -3
1 1 0 0 -1 -1 -1 -1 -1 -1 -1 -1 -1 -1 -1 -1 -1 -2 -2 -3 -3 -4 -5 -7 -7 -8 -9 -9 -9 -10 -10 -10 -10 -10 -10 -10 -10 -10 -10 -9 -8 -6 -5
0 -0 -1 -1 -1 -2 -2 -2 -1 -1 -1 -2 -2 -2 -2 -2 -2 -2 -2 -3 -4 -5 -7 -8 -8 -9 -9 -10 -10 -11 -12 -12 -13 -13 -11 -11 -11 -11 -11 -11 -11 -10 -8
-0 -1 -2 -2 -2 -2 -1 -1 -2 -2 -2 -2 -3 -3 -3 -3 -3 -3 -4 -5 -6 -8 -9 -10 -10 -11 -11 -11 -12 -12 -13 -13 -14 -13 -13 -12 -12 -12 -12 -11 -10 -10 -10
-1 -1 -2 -2 -3 -2 -2 -2 -3 -3 -3 -4 -4 -4 -4 -4 -5 -5 -5 -7 -8 -10 -11 -12 -12 -12 -12 -13 -13 -13 -13 -13 -13 -14 -13 -13 -13 -12 -12 -12 -11 -10 -10
-2 -2 -3 -3 -3 -3 -3 -3 -3 -3 -4 -4 -4 -4 -5 -5 -6 -7 -8 -8 -9 -11 -12 -12 -12 -13 -12 -13 -14 -14 -14 -13 -13 -14 -14 -14 -14 -13 -12 -12 -12 -11 -10
-2 -2 -2 -2 -3 -4 -4 -4 -4 -4 -5 -5 -5 -6 -6 -7 -8 -9 -9 -9 -10 -11 -12 -12 -13 -13 -13 -14 -14 -14 -14 -14 -14 -15 -15 -14 -14 -13 -13 -13 -12 -12 -12
-3 -3 -2 -3 -4 -4 -5 -4 -5 -5 -5 -6 -7 -7 -8 -9 -10 -11 -12 -12 -12 -12 -12 -13 -13 -14 -14 -14 -14 -14 -14 -14 -14 -14 -14 -14 -14 -13 -13 -13 -13 -13 -13
-2 -2 -3 -3 -5 -5 -5 -5 -6 -6 -6 -7 -8 -8 -9 -10 -11 -12 -13 -13 -13 -13 -13 -13 -13 -14 -14 -14 -15 -14 -14 -14 -14 -14 -14 -14 -14 -14 -14 -14 -13 -13 -13
-2 -3 -3 -3 -4 -7 -6 -7 -7 -7 -8 -8 -8 -9 -10 -11 -12 -13 -13 -14 -14 -14 -14 -14 -14 -15 -15 -14 -15 -15 -15 -15 -14 -15 -15 -15 -15 -15 -15 -14 -14 -13 -13
-3 -3 -4 -4 -6 -8 -8 -9 -9 -9 -9 -9 -10 -11 -12 -13 -13 -13 -14 -14 -15 -15 -15 -15 -15 -15 -15 -15 -15 -15 -15 -15 -15 -15 -15 -15 -15 -15 -15 -15 -15 -14 -14
-3 -3 -4 -6 -8 -9 -9 -10 -10 -11 -10 -10 -11 -12 -13 -13 -13 -14 -14 -15 -15 -16 -16 -16 -15 -15 -15 -15 -16 -16 -16 -16 -16 -16 -16 -16 -16 -16 -15 -16 -15 -15 -15
-4 -4 -5 -7 -9 -9 -10 -11 -12 -12 -11 -11 -12 -13 -13 -14 -14 -15 -15 -15 -15 -16 -16 -16 -15 -16 -16 -16 -16 -17 -17 -17 -17 -16 -16 -16 -16 -16 -16 -17 -17 -16 -16
-5 -5 -7 -9 -9 -9 -11 -11 -12 -12 -12 -13 -13 -13 -14 -14 -15 -15 -15 -15 -15 -16 -16 -16 -16 -16 -17 -17 -17 -17 -17 -17 -16 -17 -17 -17 -17 -16 -17 -17 -17 -17 -17
-5 -6 -9 -9 -9 -10 -11 -12 -12 -12 -13 -13 -13 -14 -14 -15 -15 -15 -15 -15 -16 -16 -16 -16 -16 -16 -17 -17 -17 -17 -17 -17 -17 -17 -17 -17 -17 -18 -18 -18 -18 -18 -18
-5 -9 -9 -9 -9 -10 -11 -11 -12 -13 -13 -13 -14 -15 -15 -15 -15 -15 -16 -16 -16 -16 -16 -16 -16 -17 -17 -17 -17 -17 -17 -17 -16 -18 -17 -17 -18 -18 -18 -19 -18 -18 -18
-9 -9 -9 -9 -10 -10 -11 -12 -12 -13 -13 -14 -14 -15 -15 -15 -15 -16 -16 -16 -16 -17 -17 -17 -17 -18 -17 -18 -18 -18 -18 -18 -18 -19 -19 -17 -19 -18 -18 -19 -19 -18 -18
-8 -9 -10 -10 -10 -11 -12 -12 -13 -13 -14 -14 -14 -15 -15 -15 -15 -16 -16 -16 -16 -17 -17 -18 -18 -18 -18 -18 -18 -18 -18 -18 -19 -20 -20 -18 -19 -18 -18 -19 -18 -18 -18
-9 -10 -10 -11 -11 -11 -12 -12 -13 -13 -14 -14 -15 -15 -15 -15 -15 -16 -16 -16 -16 -17 -17 -18 -18 -18 -18 -18 -18 -18 -19 -19 -19 -19 -20 -20 -19 -19 -19 -19 -19 -18 -18
-10 -11 -11 -10 -10 -11 -12 -13 -13 -14 -14 -15 -15 -15 -15 -16 -16 -16 -16 -16 -16 -17 -17 -17 -18 -19 -19 -19 -19 -19 -19 -19 -19 -19 -20 -19 -19 -19 -18 -19 -19 -19 -18

GFSMA_700_temp_033.txt.gz
Temp
2 2 2 2 2 2 1 1 1 1 1 0 0 0 -0 0 0 0 0 0 1 1 1 1 1 1 1 1 1 1 1 1 1 1 1 1 1 1 1 1 1 1 1
2 2 2 1 2 1 1 1 1 1 0 0 -0 -0 -0 0 0 1 1 1 1 1 1 0 1 1 1 1 1 1 1 1 1 1 1 1 1 1 1 1 1 1 1
2 1 1 1 1 1 1 1 1 0 -0 -0 0 0 0 1 1 1 1 1 1 0 0 0 0 0 0 1 1 1 2 2 2 2 1 1 1 1 1 1 1 1 1
2 2 2 1 1 0 0 1 0 -0 0 1 0 0 0 1 1 1 1 0 0 0 -0 -0 -0 0 0 0 0 1 1 1 1 1 1 1 1 0 1 1 0 1 1
3 2 2 1 0 0 1 0 -0 0 1 0 1 1 1 0 0 0 0 -0 -0 -1 -1 -1 -1 -1 -1 -1 -1 -0 -0 -1 -1 -1 -2 -2 -1 -1 -0 -0 -1 -1 -1
2 2 2 1 0 1 0 -0 -0 0 0 0 0 0 0 -0 -0 -1 -1 -1 -1 -1 -2 -2 -2 -2 -3 -3 -3 -4 -4 -4 -5 -5 -6 -6 -6 -5 -5 -6 -3 -1 -2
2 2 1 1 1 1 -0 -0 0 0 -0 -0 -0 -1 -1 -1 -1 -1 -2 -2 -2 -2 -3 -3 -4 -4 -4 -5 -5 -6 -7 -8 -8 -9 -9 -10 -10 -10 -9 -9 -8 -7 -2
1 1 1 0 -0 -1 -0 -0 -0 -1 -1 -1 -1 -1 -2 -2 -2 -2 -2 -2 -3 -3 -4 -4 -5 -6 -6 -7 -7 -7 -8 -9 -9 -10 -10 -10 -11 -11 -10 -10 -10 -10 -8
1 0 -0 -0 -1 -1 -1 -1 -2 -2 -2 -2 -2 -2 -2 -2 -2 -2 -3 -3 -3 -4 -5 -6 -7 -8 -8 -9 -9 -10 -10 -10 -11 -11 -12 -12 -12 -12 -12 -12 -11 -11 -10
0 -0 -1 -1 -1 -2 -2 -2 -2 -2 -2 -3 -3 -3 -3 -3 -3 -3 -4 -5 -5 -6 -7 -8 -10 -11 -11 -11 -11 -11 -12 -12 -12 -13 -13 -13 -13 -12 -12 -12 -12 -11 -10
0 -1 -1 -2 -2 -2 -3 -3 -3 -3 -4 -4 -4 -4 -4 -5 -5 -5 -5 -6 -7 -8 -9 -11 -12 -12 -12 -12 -12 -13 -13 -13 -13 -13 -13 -13 -13 -13 -13 -12 -12 -11 -11
-1 -1 -2 -2 -2 -2 -3 -4 -4 -4 -5 -5 -5 -5 -5 -6 -6 -7 -7 -7 -8 -9 -10 -11 -13 -13 -13 -13 -13 -13 -13 -14 -14 -13 -13 -14 -13 -13 -13 -13 -12 -12 -11
-1 -2 -2 -3 -3 -3 -4 -4 -4 -5 -5 -6 -6 -6 -7 -7 -7 -8 -8 -9 -9 -9 -11 -12 -13 -13 -13 -14 -14 -14 -14 -14 -14 -14 -14 -14 -14 -14 -13 -13 -13 -13 -12
-2 -3 -2 -2 -3 -4 -3 -4 -5 -6 -7 -7 -7 -8 -8 -8 -9 -9 -10 -10 -11 -11 -11 -13 -14 -14 -14 -14 -14 -14 -14 -14 -14 -14 -14 -14 -14 -14 -14 -13 -13 -13 -12
-1 -2 -3 -3 -3 -4 -4 -5 -6 -7 -8 -8 -8 -9 -9 -9 -9 -10 -12 -12 -13 -13 -13 -14 -14 -15 -15 -15 -14 -14 -14 -14 -14 -14 -14 -14 -14 -14 -14 -14 -14 -13 -13
-2 -3 -3 -4 -4 -4 -4 -5 -7 -7 -8 -8 -9 -10 -10 -10 -10 -11 -12 -14 -14 -14 -14 -14 -14 -14 -15 -15 -15 -15 -15 -15 -15 -15 -14 -14 -14 -14 -15 -15 -15 -14 -14
-3 -3 -4 -4 -4 -4 -5 -6 -8 -7 -8 -10 -10 -10 -10 -11 -11 -13 -14 -14 -14 -14 -14 -14 -14 -14 -15 -15 -15 -16 -15 -15 -15 -15 -15 -15 -15 -16 -16 -16 -15 -15 -14
-3 -4 -4 -5 -5 -5 -6 -8 -8 -9 -10 -10 -10 -11 -11 -12 -13 -13 -14 -14 -15 -15 -15 -14 -14 -15 -15 -16 -16 -16 -16 -16 -16 -16 -16 -16 -16 -16 -15 -15 -15 -15 -15
-5 -5 -5 -5 -5 -6 -8 -9 -9 -10 -10 -10 -11 -11 -12 -13 -13 -14 -14 -15 -15 -15 -15 -15 -15 -16 -16 -16 -16 -17 -17 -16 -16 -17 -17 -16 -16 -16 -16 -16 -16 -16 -16
-4 -5 -5 -5 -6 -8 -9 -9 -10 -10 -10 -11 -11 -12 -12 -13 -13 -14 -15 -15 -15 -15 -15 -16 -16 -16 -16 -17 -17 -17 -16 -17 -17 -17 -17 -17 -17 -17 -16 -16 -16 -17 -17
-4 -4 -4 -6 -8 -8 -9 -10 -9 -10 -10 -11 -12 -12 -13 -13 -14 -15 -15 -15 -15 -15 -16 -16 -16 -16 -16 -17 -17 -17 -17 -17 -17 -17 -17 -17 -17 -17 -17 -17 -17 -17 -18
-4 -5 -7 -8 -8 -9 -10 -10 -10 -10 -11 -12 -12 -13 -13 -14 -14 -15 -15 -15 -15 -16 -16 -16 -16 -17 -17 -17 -17 -17 -17 -17 -16 -18 -17 -17 -19 -18 -18 -18 -18 -18 -18
-5 -7 -8 -8 -8 -10 -11 -11 -10 -11 -11 -12 -13 -13 -14 -14 -15 -15 -15 -15 -16 -16 -16 -16 -16 -17 -17 -17 -17 -17 -18 -18 -18 -18 -18 -18 -20 -18 -19 -18 -18 -18 -18
-7 -8 -8 -8 -9 -11 -11 -11 -11 -11 -12 -12 -13 -13 -14 -14 -15 -15 -15 -16 -16 -16 -16 -17 -17 -17 -17 -17 -18 -18 -18 -18 -18 -19 -20 -19 -19 -19 -19 -19 -18 -18 -18
-8 -8 -8 -9 -10 -11 -11 -11 -11 -11 -12 -12 -13 -14 -14 -15 -15 -16 -16 -16 -16 -16 -16 -17 -17 -17 -17 -17 -18 -18 -18 -18 -18 -19 -20 -19 -19 -18 -19 -19 -19 -19 -19
-8 -8 -10 -11 -11 -10 -11 -11 -12 -12 -12 -13 -14 -14 -15 -15 -16 -16 -16 -16 -16 -16 -16 -17 -17 -17 -17 -18 -18 -18 -18 -18 -18 -18 -20 -19 -19 -19 -18 -19 -20 -19 -19

GFSMA_700_temp_036.txt.gz
Temp
2 2 2 1 1 2 1 1 1 1 1 1 0 0 0 0 0 0 0 0 0 -0 -0 0 0 1 1 1 1 1 1 1 1 1 1 1 1 1 2 2 2 1 1
2 2 1 1 1 1 1 0 0 0 0 -0 -0 -0 0 0 0 0 0 0 -0 0 0 0 0 0 1 1 0 1 1 1 1 1 1 1 1 1 1 1 1 2 2
1 1 1 1 0 0 0 -0 0 0 -0 -0 -0 -0 0 0 0 1 1 0 -0 -0 -0 -0 -0 0 0 1 1 1 1 1 1 1 1 1 1 1 1 1 1 1 1
2 2 1 0 0 0 -0 -0 -0 -0 -1 -0 -0 0 0 0 0 0 0 0 -0 -0 -0 -0 -0 -0 -0 -0 0 0 0 1 1 1 1 1 1 1 1 1 1 1 1
2 1 1 1 0 0 -0 -0 -1 -0 -0 -0 -0 -0 -0 -0 0 0 -0 -0 -0 -0 -1 -1 -1 -1 -1 -1 -0 -1 -1 -0 -0 -0 -0 -1 -0 -0 0 0 1 1 1
1 1 1 1 0 -0 -0 -1 -0 -0 -0 0 -0 -0 -1 -1 -0 -0 -1 -1 -1 -1 -1 -1 -1 -2 -2 -1 -1 -1 -2 -2 -3 -3 -3 -2 -2 -2 -2 -1 -0 0 1
1 1 1 1 0 -0 -0 -0 -0 -0 0 -0 -1 -1 -1 -1 -1 -1 -1 -1 -1 -2 -2 -2 -3 -3 -3 -4 -4 -4 -5 -6 -6 -6 -6 -7 -6 -6 -6 -6 -6 -5 -4
1 1 1 0 0 0 0 -0 -0 -1 -1 -1 -1 -1 -1 -1 -1 -1 -1 -2 -2 -2 -3 -4 -4 -4 -5 -5 -6 -7 -7 -7 -8 -8 -9 -9 -9 -9 -8 -8 -8 -8 -8
1 1 1 0 0 0 0 -0 -0 -1 -2 -3 -3 -2 -3 -2 -2 -3 -3 -3 -3 -4 -4 -4 -5 -5 -6 -7 -8 -8 -8 -9 -10 -11 -11 -11 -11 -11 -11 -11 -11 -10 -10
1 1 1 0 0 -0 -0 -1 -2 -2 -3 -3 -3 -3 -3 -4 -4 -3 -4 -4 -5 -5 -5 -6 -6 -7 -8 -9 -9 -10 -10 -11 -12 -12 -12 -12 -12 -12 -12 -12 -12 -12 -11
1 1 0 -0 -0 -1 -1 -2 -2 -3 -3 -3 -4 -4 -5 -5 -5 -5 -5 -6 -6 -7 -7 -8 -9 -10 -10 -11 -12 -12 -12 -13 -13 -13 -13 -13 -13 -13 -13 -12 -12 -12 -11
1 0 0 -0 -1 -2 -2 -2 -3 -3 -4 -4 -4 -5 -5 -6 -6 -7 -7 -8 -7 -8 -8 -9 -10 -11 -12 -13 -13 -13 -13 -13 -14 -14 -14 -13 -13 -13 -13 -13 -13 -12 -12
0 0 -0 -1 -2 -2 -3 -3 -4 -4 -4 -5 -5 -6 -6 -7 -8 -9 -9 -9 -9 -9 -9 -10 -12 -13 -13 -13 -14 -14 -14 -14 -14 -14 -14 -14 -13 -13 -13 -13 -13 -13 -12
-0 -0 -1 -2 -2 -3 -3 -4 -4 -5 -5 -5 -6 -7 -7 -9 -9 -10 -10 -10 -10 -10 -10 -12 -13 -14 -14 -15 -14 -15 -14 -15 -14 -14 -14 -14 -14 -14 -14 -13 -13 -13 -13
-1 -2 -3 -3 -2 -4 -4 -5 -5 -6 -5 -7 -7 -7 -8 -9 -9 -10 -11 -11 -11 -11 -11 -12 -13 -14 -14 -15 -15 -15 -15 -14 -14 -14 -14 -14 -14 -14 -14 -14 -14 -14 -13
-2 -3 -3 -3 -3 -4 -4 -5 -5 -5 -6 -7 -7 -8 -9 -10 -10 -11 -11 -11 -12 -13 -13 -13 -14 -14 -14 -15 -15 -15 -15 -15 -15 -15 -15 -15 -15 -15 -15 -15 -15 -15 -14
-3 -3 -3 -3 -4 -6 -6 -5 -6 -6 -7 -7 -8 -9 -10 -10 -10 -11 -11 -12 -13 -14 -14 -14 -14 -14 -14 -15 -15 -15 -15 -15 -16 -16 -16 -16 -16 -16 -16 -16 -16 -15 -15
-2 -3 -5 -5 -5 -5 -5 -5 -7 -7 -8 -8 -9 -10 -10 -10 -10 -11 -12 -13 -14 -14 -14 -14 -14 -14 -15 -15 -16 -16 -16 -16 -17 -16 -16 -17 -16 -16 -16 -16 -16 -15 -15
-3 -4 -4 -4 -4 -5 -5 -6 -7 -8 -8 -9 -10 -10 -10 -10 -11 -12 -13 -13 -14 -14 -15 -14 -14 -15 -15 -16 -16 -16 -17 -17 -17 -17 -17 -17 -17 -17 -16 -16 -16 -16 -15
-4 -4 -4 -4 -4 -4 -6 -7 -8 -8 -9 -10 -10 -10 -10 -11 -12 -13 -13 -14 -14 -15 -15 -15 -15 -15 -16 -16 -16 -16 -17 -17 -17 -17 -18 -17 -17 -17 -17 -16 -16 -16 -16
-4 -3 -4 -3 -4 -7 -7 -8 -8 -9 -10 -10 -10 -11 -11 -12 -13 -13 -14 -14 -15 -15 -15 -15 -15 -15 -16 -16 -16 -17 -17 -17 -17 -18 -17 -18 -18 -18 -18 -17 -17 -17 -17
-3 -4 -3 -4 -7 -8 -8 -9 -9 -10 -10 -10 -10 -11 -12 -13 -13 -14 -14 -14 -15 -15 -15 -15 -16 -16 -16 -16 -16 -17 -17 -17 -17 -18 -17 -17 -19 -18 -18 -18 -18 -17 -17
-3 -3 -4 -7 -8 -8 -8 -9 -10 -10 -10 -10 -11 -12 -12 -13 -14 -14 -14 -15 -15 -15 -15 -16 -16 -16 -16 -16 -16 -16 -17 -18 -18 -18 -18 -17 -19 -18 -19 -19 -18 -17 -18
-4 -6 -7 -8 -8 -9 -9 -10 -10 -10 -11 -11 -11 -12 -13 -13 -14 -14 -15 -15 -16 -16 -16 -16 -16 -16 -16 -16 -16 -16 -17 -17 -18 -19 -19 -17 -19 -19 -18 -19 -18 -18 -18
-7 -7 -8 -8 -9 -9 -10 -10 -11 -11 -11 -11 -12 -13 -13 -14 -15 -15 -15 -16 -16 -16 -16 -16 -16 -16 -16 -16 -16 -16 -17 -17 -18 -18 -19 -19 -19 -18 -18 -19 -19 -19 -19
-8 -8 -9 -9 -10 -10 -11 -11 -11 -12 -12 -12 -12 -13 -14 -14 -15 -15 -16 -16 -16 -17 -16 -17 -17 -17 -16 -16 -17 -17 -17 -17 -18 -18 -19 -18 -19 -19 -18 -18 -19 -19 -19